Simultaneous Nadir Overpasses (SNOs) Predictions

Prediction of SNOs between AQUA and METOP-B Satellite Orbit:

Table of predicted SNOs for the next 14.0 days since TLE Epoch: 11/21/2015
Index Date (AQUA) Time (AQUA) Lat,Lon (AQUA) SZA (AQUA ) Date (METOP-B) Time (METOP-B) Lat,Lon (METOP-B) SZA (METOP-B ) Distance(km) Time Diff (sec)
1 11/23/2015 02:50:29 -73.69, -48.14 86.15 11/23/2015 02:49:16 -73.63, -48.41 86.20 10.76 73
2 11/23/2015 03:39:58 73.76, 119.33 93.94 11/23/2015 03:39:53 73.76, 119.24 93.94 2.89 5
3 11/23/2015 04:29:25 -73.84, -73.19 85.98 11/23/2015 04:30:33 -73.85, -73.22 85.97 1.81 68
4 11/25/2015 22:24:47 -73.72, 18.23 85.55 11/25/2015 22:23:34 -73.71, 18.20 85.55 1.07 73
5 11/25/2015 23:14:16 73.80,-174.31 94.55 11/25/2015 23:14:12 73.79,-174.28 94.54 1.31 4
6 11/26/2015 00:03:43 -73.87, -6.82 85.38 11/26/2015 00:04:53 -73.84, -6.85 85.41 3.48 70
7 11/28/2015 17:59:03 -73.72, 84.65 85.02 11/28/2015 17:57:52 -73.74, 84.68 85.00 2.19 71
8 11/28/2015 18:48:32 73.81,-107.90 95.08 11/28/2015 18:48:30 73.81,-107.81 95.08 2.95 2
9 11/28/2015 19:37:59 -73.87, 59.60 84.86 11/28/2015 19:39:11 -73.86, 59.63 84.87 1.43 72
10 12/01/2015 13:33:19 -73.70, 151.12 84.58 12/01/2015 13:32:12 -73.71, 151.03 84.56 3.12 67
11 12/01/2015 14:22:48 73.79, -41.44 95.53 12/01/2015 14:22:50 73.78, -41.47 95.52 1.69 2
12 12/01/2015 15:12:16 -73.91, 125.96 84.36 12/01/2015 15:13:29 -73.94, 126.22 84.33 8.85 73
13 12/04/2015 09:07:35 -73.71,-142.46 84.15 12/04/2015 09:06:31 -73.73,-142.52 84.13 2.64 64
14 12/04/2015 09:57:04 73.81, 24.96 95.96 12/04/2015 09:57:09 73.80, 24.97 95.94 1.56 5




NCC Satellite Simultaneous Nadir Overpasses (SNOs) Prediction Service
